SCP
0 0 0 -0 -0 -0 -0 -0 -0 -0 -0 -0 -0 0 0 0 0 -0 0 0 0 0 0 0 0 -0 -0 -0 -0 0 0 0 0 0 0 0 0 0 -0 0 0 -0 0 -0 -0 -0 -0 -0 -0 -0 0 0 0 0
0 0 -0 -0 -0 -0 -0 0 -0 -0 0 0 0 0 0 0 -0 -0 0 -0 0 0 -0 -0 -0 -0 0 0 -0 0 0 -0 -0 0 0 0 0 -0 -0 -0 -0 0 0 -0 -0 -0 0 0 0 0 0 0 0 -0
0 0 -0 -0 -0 -0 0 -0 -0 0 0 0 0 0 0 0 0 -0 0 -0 -0 0 0 0 0 -0 -0 0 -0 -0 0 -0 -0 -0 -0 0 0 0 -0 0 -0 0 -0 -0 0 -0 0 0 0 0 0 0 0 0
-0 -0 -0 -0 0 0 -0 -0 0 0 0 -0 -0 -0 0 0 0 -0 -0 0 -0 -0 -0 0 0 0 0 -0 0 0 0 -0 0 -0 0 -0 0 0 0 0 0 -0 0 0 0 0 0 0 0 0 0 0 0 0
-0 -0 -0 0 0 -0 0 0 0 0 -0 -0 -0 -0 -0 -0 -0 -0 0 0 0 0 -0 -0 0 0 0 0 -0 0 0 0 0 0 0 0 0 0 0 0 0 -0 0 -0 0 0 0 0 0 0 0 0 0 0
0 0 0 0 -0 0 0 0 -0 -0 -0 -0 -0 -0 -0 -0 -0 0 -0 0 0 0 0 0 0 0 0 0 0 0 0 0 0 0 0 0 0 0 0 0 -0 -0 0 0 -0 -0 0 0 0 0 0 0 0 0
0 0 -0 -0 0 0 0 -0 -0 -0 -0 -0 -0 -0 -0 0 0 0 0 0 0 0 0 0 0 0 0 0 0 0 0 0 0 0 0 0 0 0 0 0 0 0 0 0 0 0 -0 0 0 0 0 0 0 0
0 0 -0 -0 -0 0 -0 -0 -0 -0 -0 -0 0 0 0 0 0 0 0 0 0 0 0 0 0 0 0 0 0 0 0 0 0 0 0 0 0 0 0 0 0 0 0 0 0 0 0 0 0 0 0 0 0 -0
-0 0 -0 0 0 -0 -0 -0 -0 -0 -0 -0 0 0 0 0 0 0 0 0 0 0 0 0 0 0 0 0 0 0 0 0 0 0 0 0 0 0 0 0 0 0 0 0 0 0 0 0 0 -0 -0 -0 -0 -0
-0 -0 0 0 0 -0 -0 -0 -0 -0 -0 0 0 0 0 0 0 0 0 0 0 0 0 0 -0 0 0 0 0 0 0 0 0 0 0 0 0 0 0 0 0 0 0 0 0 0 0 0 0 0 0 0 -0 -0
-0 0 -0 0 -0 -0 -0 -0 -0 -0 0 0 0 0 0 0 0 0 0 0 0 0 0 0 0 0 0 0 0 0 0 0 0 0 0 0 0 -0 -0 -0 -0 0 0 0 0 0 0 0 0 0 0 0 0 0
-0 -0 0 0 -0 0 -0 -0 -0 -0 -0 -0 0 0 0 0 -0 -0 -0 0 -0 -0 0 -0 0 0 0 0 0 -0 0 0 0 0 0 0 -0 -0 -0 -0 -0 -0 -0 0 0 0 0 0 0 0 0 0 0 0
-0 -0 0 0 -0 0 -0 -0 -0 0 0 0 0 0 -0 -0 0 0 0 -0 -0 -0 -0 -0 0 0 -0 0 0 -0 -0 -0 -0 -0 -0 0 -0 -0 -0 -0 -0 -0 0 -0 0 0 0 0 0 0 0 0 0 0
-0 0 0 -0 0 -0 -0 -0 0 0 0 -0 0 -0 0 0 -0 0 -0 0 0 0 0 0 0 0 0 0 -0 0 -0 -0 -0 -0 -0 -0 0 -0 -0 -0 0 0 0 0 0 0 0 0 0 0 0 0 0 0
-0 0 -0 -0 0 -0 -0 0 0 0 -0 -0 0 0 0 0 0 0 -0 0 0 0 0 0 0 0 0 0 0 -0 0 -0 0 0 -0 0 -0 -0 -0 -0 -0 -0 0 0 0 0 0 0 0 0 0 0 0 0
0 -0 -0 0 0 -0 -0 0 0 0 0 0 0 0 0 0 0 0 0 -0 0 0 0 0 0 0 0 0 0 0 0 0 -0 -0 -0 -0 -0 -0 -0 -0 -0 -0 -0 0 0 0 0 0 0 0 0 0 0 0
-0 -0 -0 0 0 -0 0 0 0 -0 0 0 0 0 0 0 0 0 0 -0 -0 0 0 0 -0 0 0 0 0 0 0 -0 0 -0 -0 0 0 0 -0 -0 -0 -0 -0 -0 -0 -0 -0 -0 0 0 0 0 0 0
0 -0 -0 0 -0 0 0 -0 0 0 0 0 0 0 0 -0 -0 -0 -0 -0 0 0 0 -0 0 0 0 0 0 0 0 0 -0 -0 -0 -0 -0 0 -0 -0 -0 0 0 0 0 0 0 0 0 0 0 0 0 0
-0 0 0 -0 -0 -0 -0 0 -0 0 0 0 0 0 -0 -0 -0 -0 0 0 -0 -0 0 0 0 0 0 0 0 0 0 0 0 0 -0 -0 -0 -0 0 -0 -0 0 0 0 0 0 0 0 0 0 0 -0 0 0
0 0 0 -0 -0 0 0 0 0 0 0 0 0 0 -0 -0 -0 -0 -0 0 -0 -0 0 0 -0 0 0 0 0 0 0 0 -0 0 0 0 0 -0 0 -0 -0 0 0 0 0 0 0 0 0 0 0 0 0 0
-0 -0 -0 -0 -0 0 0 0 0 0 0 0 0 0 0 0 0 0 0 -0 0 0 0 0 -0 -0 -0 -0 -0 -0 0 -0 0 0 0 0 0 0 0 0 -0 -0 -0 0 0 0 0 0 0 0 0 0 0 0
-0 -0 -0 -0 0 0 0 0 0 0 0 0 0 0 0 0 0 0 0 0 0 0 0 0 0 0 0 0 0 0 0 0 0 0 0 0 0 0 0 0 -0 -0 -0 0 0 0 0 0 0 0 0 0 0 0
-0 0 0 0 0 0 0 0 0 0 0 0 0 0 0 0 0 0 0 0 0 0 0 0 0 -0 -0 -0 0 0 0 0 0 0 0 0 0 0 -0 -0 -0 -0 -0 0 0 0 0 0 0 0 0 0 0 0
0 0 0 0 0 0 0 0 0 0 0 0 0 0 0 0 0 0 0 0 0 0 0 0 0 0 0 0 0 0 0 0 0 0 0 0 0 0 0 0 -0 0 0 0 0 0 0 0 0 0 0 0 0 0
0 0 0 0 0 0 0 0 0 0 0 0 0 0 0 0 0 0 0 0 0 0 0 0 0 0 0 0 0 0 0 0 0 0 0 0 0 0 0 0 0 0 0 0 0 0 0 0 0 0 0 0 0 0
0 0 0 0 0 0 0 0 0 0 0 0 0 0 0 0 0 0 0 0 0 0 0 0 0 0 0 0 0 0 0 0 0 0 0 0 0 0 0 0 0 0 0 0 0 0 0 0 0 0 0 0 0 0
0 0 0 0 0 0 0 0 0 0 0 0 0 0 0 0 0 0 0 0 0 0 0 0 -0 0 0 0 0 0 0 0 0 0 0 0 0 0 0 0 0 0 0 0 0 0 0 0 0 0 0 0 0 0
0 0 0 0 0 0 0 0 0 0 0 0 0 0 0 0 0 0 0 0 0 0 0 0 0 0 -0 0 0 0 0 0 0 0 0 0 0 0 0 0 0 0 0 0 0 0 0 0 0 0 0 0 0 0
0 0 0 0 0 0 0 0 0 0 0 0 0 0 0 0 0 0 0 0 0 0 0 0 0 0 0 0 0 0 0 0 0 0 0 0 0 0 0 0 0 0 0 0 0 0 0 0 0 0 0 0 0 0
0 0 0 0 0 0 0 0 0 0 0 0 0 0 0 0 0 0 0 0 0 0 0 0 0 0 0 0 0 0 0 0 0 0 0 0 0 0 0 0 0 0 0 0 0 0 0 0 0 0 0 0 0 0
0 0 0 0 0 0 0 0 0 0 0 0 0 0 0 0 0 0 0 0 0 0 0 0 0 0 0 0 0 0 0 0 0 0 0 0 0 0 0 0 0 0 0 0 0 0 0 0 0 0 0 0 0 0
0 0 0 0 0 0 0 0 0 0 0 0 0 0 0 0 0 0 0 0 0 0 0 0 0 0 0 0 0 0 0 0 0 0 0 0 0 0 0 0 0 0 0 0 0 0 0 0 0 0 0 0 0 0
0 0 0 0 0 0 0 0 0 0 0 0 0 0 0 0 0 0 0 0 0 0 0 0 0 0 0 0 0 0 0 0 0 0 0 0 0 0 0 0 0 0 0 0 0 0 0 0 0 0 0 0 0 0
Wind_Speed_500mb
15 18 21 25 28 31 33 34 33 31 34 36 37 36 30 25 43 43 54 53 56 66 44 40 39 39 21 20 10 8 8 7 5 5 4 6 6 9 8 12 8 11 9 8 8 6 8 47 20 14 21 44 48 56
14 16 20 23 26 28 30 35 34 29 31 33 34 31 28 23 22 24 31 26 29 48 41 38 44 40 28 18 12 18 14 8 10 2 7 5 10 7 3 5 16 6 9 6 9 6 15 31 27 23 20 33 36 40
13 15 19 22 23 25 29 32 32 31 31 31 34 30 29 23 18 50 56 42 39 50 42 29 29 33 38 32 16 9 18 11 14 13 14 4 14 3 4 11 7 9 24 7 7 13 23 24 31 27 25 30 37 40
10 14 18 21 22 23 24 29 30 28 28 30 27 28 22 24 28 33 26 25 20 19 18 23 21 34 33 30 34 37 35 29 25 22 17 8 7 7 7 6 7 15 10 12 3 12 19 25 31 29 26 28 32 33
9 13 17 20 21 21 21 25 25 22 24 28 28 27 19 15 15 15 13 6 10 10 19 20 21 27 28 32 28 27 22 25 21 15 15 11 9 4 11 6 13 15 3 4 7 13 6 18 26 28 29 30 31 32
9 12 16 20 19 19 20 22 20 16 19 22 28 36 29 17 18 16 11 17 28 26 7 7 11 21 18 22 25 24 20 21 16 12 12 12 10 4 6 8 18 15 11 7 4 12 11 16 18 19 22 24 29 30
8 12 16 16 17 19 21 22 16 12 13 16 20 22 40 35 15 11 10 11 7 10 5 11 11 11 13 11 14 17 21 17 17 10 11 8 8 7 4 5 19 15 11 8 11 11 16 21 21 22 20 19 26 26
9 12 15 16 17 20 23 23 16 12 11 12 18 20 24 28 31 26 24 12 9 9 8 5 8 6 16 7 5 8 11 17 16 9 7 6 5 6 4 21 14 10 7 9 8 11 14 18 20 23 20 18 23 27
9 13 13 13 16 19 21 22 14 10 11 10 14 13 14 13 11 11 20 27 28 12 7 10 6 6 10 7 3 3 4 7 6 9 10 7 6 6 12 31 9 5 1 2 4 8 15 16 18 22 21 21 22 24
10 11 11 13 15 16 18 19 14 15 10 7 8 6 6 9 8 8 13 6 10 13 12 15 5 5 7 7 2 4 5 4 4 10 4 4 2 25 30 17 12 3 2 2 5 13 14 18 19 19 18 17 19 20
9 10 10 11 13 14 16 16 10 7 6 6 5 6 6 12 10 6 6 10 11 7 10 9 13 6 9 5 4 3 4 3 4 6 4 8 12 42 34 31 16 8 4 3 4 8 12 11 10 13 12 12 15 16
9 10 10 11 12 12 15 16 12 12 9 8 8 9 11 9 8 6 7 6 11 6 8 12 11 6 4 3 5 4 2 2 7 3 6 6 17 38 44 48 13 4 8 5 3 8 10 7 2 5 5 7 10 12
9 10 10 10 11 11 15 16 12 8 6 9 7 6 8 8 14 8 7 6 5 7 12 13 8 4 3 3 4 2 4 8 5 6 3 4 29 33 33 34 23 23 17 14 8 7 11 9 8 7 6 6 7 8
8 9 9 10 10 13 15 17 15 10 9 6 6 9 6 7 8 7 7 4 5 5 9 11 7 3 4 1 5 3 6 2 5 4 1 10 24 29 31 28 18 16 12 13 5 9 7 7 5 5 4 2 2 2
7 8 8 9 9 12 14 16 15 14 8 7 7 5 7 8 6 3 2 5 3 7 7 5 6 5 4 3 4 2 5 6 3 4 3 12 14 20 27 30 26 22 18 16 10 7 1 4 4 3 4 6 9 10
7 9 7 9 8 11 10 14 13 13 7 7 7 10 9 6 6 1 2 3 3 6 6 5 5 2 4 2 3 5 5 3 6 5 8 9 11 18 25 27 27 21 21 19 14 15 10 14 14 9 16 20 22 22
8 7 8 8 5 10 11 10 8 7 6 5 7 6 3 1 2 3 6 5 8 6 3 5 3 7 1 2 5 3 4 9 10 7 7 8 11 18 22 23 24 21 18 18 16 18 16 20 21 21 28 26 19 21
8 7 8 7 5 9 17 12 6 6 7 7 4 8 6 7 7 5 3 3 3 2 3 3 1 2 4 5 3 5 8 5 2 3 6 8 9 15 20 21 20 20 18 18 19 19 18 20 22 22 27 26 19 14
8 7 6 3 2 5 4 8 7 5 7 6 4 3 4 4 5 3 3 4 5 5 1 2 2 4 3 7 12 13 9 5 5 5 6 6 8 13 20 21 18 18 18 21 21 19 18 16 17 21 24 27 18 13
9 8 6 5 6 4 4 6 7 4 3 5 2 2 2 3 2 3 1 1 1 1 2 2 6 13 14 13 9 9 8 7 5 4 5 6 8 11 18 22 20 20 19 21 22 22 16 14 15 20 22 23 22 21
8 8 8 8 11 8 6 4 5 4 2 1 2 2 1 2 1 2 4 3 2 4 6 11 16 13 9 8 7 6 4 4 6 4 5 6 9 10 14 21 22 21 21 23 24 23 19 16 16 18 19 20 24 23
6 5 6 7 6 5 5 6 3 1 2 2 4 4 5 5 2 3 2 4 3 10 11 13 9 6 5 6 5 8 5 5 6 6 8 6 8 8 13 17 22 24 23 23 25 23 23 18 16 16 17 21 23 20
6 6 5 6 4 4 3 4 1 3 4 5 6 6 2 2 1 2 5 1 3 8 9 6 6 7 8 6 6 4 1 2 4 5 8 8 9 10 12 17 21 24 25 23 24 23 22 23 17 17 18 21 23 21
5 3 3 3 4 3 1 2 1 2 2 4 6 5 7 9 8 5 2 1 2 7 7 8 6 7 7 8 9 6 6 9 15 12 8 11 12 10 14 17 21 23 23 21 23 23 20 20 19 19 21 23 22 22
2 3 2 3 1 2 2 1 1 3 3 6 6 3 6 7 5 3 5 7 5 7 7 6 5 7 1 6 7 6 7 13 15 15 9 11 13 14 16 20 24 24 19 19 21 23 20 17 17 18 20 20 17 15
2 2 1 2 3 1 2 2 3 5 6 4 3 7 6 5 3 5 8 8 7 3 5 11 5 3 2 3 15 14 14 14 13 9 7 11 11 17 23 28 26 21 20 17 17 21 18 16 16 18 18 18 22 18
3 5 4 5 3 4 0 1 3 4 2 3 4 6 5 4 5 5 7 4 3 3 3 4 7 2 3 8 12 16 17 8 3 5 6 11 15 18 19 20 19 18 16 11 11 14 16 18 17 18 19 18 19 18
4 6 8 11 6 3 2 2 3 2 1 1 4 3 6 2 2 5 6 5 4 3 2 4 8 11 11 10 8 7 9 5 6 11 15 13 16 18 21 17 15 18 10 7 6 9 13 16 18 19 18 17 15 16
7 9 10 11 7 6 5 4 4 3 3 4 5 4 4 7 10 9 9 8 6 7 11 14 11 10 9 6 5 7 2 3 9 13 16 17 17 18 18 16 14 11 9 9 12 6 14 18 19 19 18 17 17 17
9 13 8 8 7 6 5 8 5 5 7 10 11 13 15 15 16 17 15 15 14 13 10 8 8 8 11 10 8 7 6 6 8 10 13 14 14 16 15 13 13 12 9 7 6 12 18 18 21 20 20 17 17 16
8 12 6 8 6 6 8 9 11 13 14 15 15 18 20 16 14 12 14 17 19 16 16 14 14 14 15 14 13 12 11 9 7 8 8 10 12 13 12 12 12 12 10 7 5 7 10 13 15 16 17 18 19 20
10 9 7 7 5 6 6 8 9 11 11 11 12 12 10 9 9 6 7 5 6 10 13 15 17 19 17 16 13 11 12 7 6 11 13 12 13 15 12 10 11 12 10 8 7 7 9 11 12 15 17 20 22 23
6 6 6 6 5 5 7 6 6 7 10 9 9 10 11 10 8 7 10 9 7 6 6 8 10 12 11 10 11 10 10 12 17 21 23 33 27 17 9 7 7 6 7 6 6 6 7 9 11 15 17 18 20 22
Wind_Direction_500mb
33 28 27 28 28 28 29 29 30 29 27 26 34 44 57 65 80 76 90 83 103 97 75 66 61 51 52 41 26 79 205 91 130 100 79 86 87 80 95 51 354 26 328 14 325 337 13 352 353 34 309 317 329 358
37 27 28 28 28 30 30 29 29 31 28 28 37 51 63 90 76 82 85 82 90 96 99 72 60 48 42 25 17 61 77 84 21 112 79 151 128 98 19 77 3 68 41 316 340 31 318 343 332 306 315 325 5 13
37 28 29 26 29 32 32 29 30 33 34 42 46 58 66 85 97 102 95 97 81 92 78 62 33 32 44 37 75 21 74 62 82 61 82 57 86 338 52 50 340 67 22 8 332 11 344 340 349 350 14 25 19 17
33 33 29 25 31 35 33 30 31 39 47 43 44 52 79 103 129 140 72 76 85 84 80 58 49 46 37 54 66 74 90 87 83 77 77 70 88 8 57 64 30 22 2 347 102 17 322 15 2 11 24 18 15 18
34 35 27 25 32 33 33 31 33 46 50 44 45 43 51 130 91 174 218 4 54 78 99 95 64 43 50 53 60 65 70 76 72 74 84 74 82 217 139 144 38 31 355 350 50 317 282 309 8 15 18 16 18 19
38 32 25 28 34 33 31 26 32 58 56 53 50 45 50 119 125 90 87 70 108 96 98 98 76 40 43 52 57 60 61 60 68 73 70 86 56 340 28 77 24 83 91 104 329 354 354 2 8 6 15 16 21 25
39 33 28 33 38 35 27 23 39 77 64 60 55 60 56 66 99 98 109 113 95 93 94 131 105 34 37 43 52 54 56 60 53 71 45 45 47 23 38 50 7 50 57 46 31 21 9 8 11 9 15 20 20 25
44 36 34 43 43 35 33 37 53 87 77 78 55 60 66 69 64 65 72 82 90 67 62 58 100 115 28 31 75 36 70 69 42 52 69 58 30 42 67 349 358 49 87 83 49 24 12 12 20 22 24 27 24 24
45 39 43 54 48 42 42 35 46 96 98 80 56 58 53 39 54 58 65 61 65 73 73 64 17 48 357 33 25 74 46 72 65 47 44 28 2 40 301 309 339 23 117 68 39 34 13 21 23 24 25 31 33 33
46 45 59 63 52 51 42 39 61 78 94 69 41 28 50 7 39 57 19 44 38 42 56 57 46 25 1 26 122 118 64 114 57 38 87 81 36 358 3 347 318 14 166 213 16 17 26 20 18 17 23 34 39 40
51 58 74 65 57 58 39 35 47 58 68 50 44 56 31 35 40 36 50 34 16 73 41 35 32 12 20 22 0 65 157 166 96 54 4 27 8 1 356 348 255 240 227 269 306 333 347 343 351 10 27 45 45 51
57 73 82 66 59 61 37 39 51 61 74 83 109 73 37 23 23 44 38 44 36 58 37 11 358 359 360 5 286 98 67 107 68 65 54 14 351 357 5 13 154 206 323 294 329 347 3 3 44 42 56 79 72 71
62 87 82 65 69 54 34 35 38 51 75 63 53 56 29 33 41 46 26 36 36 19 14 357 357 343 343 335 268 319 57 67 129 49 66 273 4 2 17 33 64 36 44 36 44 36 44 65 95 98 116 128 112 93
79 91 88 75 82 46 40 33 33 50 62 57 44 30 36 39 54 48 55 80 51 354 342 327 325 12 5 326 337 57 76 98 66 74 29 1 9 6 11 15 10 13 60 21 325 2 20 60 83 79 87 139 177 171
84 102 91 100 78 46 38 32 38 61 54 60 45 59 69 92 123 160 295 310 295 317 337 303 289 279 39 96 39 117 102 74 53 141 63 15 354 0 2 3 1 1 2 5 31 24 168 307 298 307 328 270 256 250
96 116 91 124 80 38 33 30 42 61 57 56 62 112 121 160 97 133 325 323 339 316 318 273 284 295 69 2 82 66 89 98 144 84 30 5 0 4 4 5 4 0 8 13 22 17 358 351 350 334 320 298 269 240
115 108 110 123 60 27 25 40 41 53 61 66 93 83 44 56 326 7 337 317 313 290 336 290 293 36 283 176 93 61 106 101 104 82 30 7 3 359 360 3 5 9 1 356 359 354 359 355 348 349 347 343 330 254
110 97 123 124 96 46 41 41 60 67 77 94 94 81 34 17 359 16 10 346 288 322 300 37 22 19 23 117 149 178 119 119 115 72 41 18 5 2 1 359 1 359 353 352 349 345 346 350 346 347 346 343 349 4
101 86 117 109 29 35 39 31 50 78 75 92 85 51 17 20 16 43 105 59 56 64 78 23 59 111 108 114 130 111 106 93 91 102 50 44 26 7 4 2 1 358 2 358 353 345 339 341 351 352 350 359 0 348
97 88 107 87 46 60 67 37 51 68 94 81 126 105 44 28 2 46 125 247 314 23 81 28 106 131 122 118 122 113 93 80 79 115 81 46 10 358 357 7 2 359 354 353 352 351 349 345 346 349 355 354 343 346
105 85 77 95 67 71 80 51 64 59 75 339 104 230 208 244 178 141 92 132 116 72 104 124 127 129 134 125 119 114 100 86 43 19 351 344 337 343 355 1 4 358 356 352 355 356 351 343 341 344 346 352 353 355
115 86 83 65 58 58 68 37 61 15 309 347 286 284 242 228 179 138 215 230 91 122 127 143 148 157 172 137 129 111 79 57 28 8 350 320 330 336 343 353 359 357 352 349 347 345 346 336 331 345 339 345 351 353
100 86 54 48 68 62 94 28 1 9 303 355 321 289 308 312 1 261 249 173 145 165 169 180 215 229 230 226 201 192 359 344 309 351 349 324 311 318 330 338 342 345 343 340 344 341 342 345 331 333 333 334 340 341
78 79 57 52 49 91 104 113 18 321 307 348 332 344 12 348 329 286 357 148 179 197 202 228 264 248 219 194 216 225 265 281 305 291 285 326 322 321 323 332 338 339 334 336 339 338 337 339 348 336 329 329 329 333
56 45 65 85 79 182 149 121 260 273 350 3 318 345 5 321 301 350 35 39 348 267 251 268 244 207 157 40 356 325 312 305 302 305 315 319 319 318 322 329 331 330 329 334 337 341 337 334 335 341 345 351 0 358
100 124 52 91 114 274 46 288 339 348 322 311 357 330 315 307 312 56 17 358 358 303 249 188 132 74 43 270 325 341 325 311 326 317 319 338 332 327 325 325 326 327 321 327 332 343 345 340 332 333 333 340 344 351
166 160 162 160 116 120 187 274 309 272 273 315 3 325 302 310 27 45 354 342 14 36 119 175 135 351 187 302 331 336 340 300 218 308 348 349 337 336 334 327 322 314 321 329 335 344 347 344 338 334 329 326 326 338
210 186 190 172 169 182 298 291 265 255 165 196 280 281 317 15 269 329 337 320 278 281 312 272 259 290 288 279 313 343 356 357 351 339 342 335 343 342 346 340 326 329 345 311 331 349 348 357 358 352 349 347 344 345
198 188 176 189 184 206 229 242 250 222 206 258 287 293 270 282 289 290 297 303 298 275 270 288 267 272 289 280 319 349 323 290 317 325 337 339 341 336 340 349 345 334 318 317 310 313 332 346 353 356 354 350 348 346
190 181 197 191 200 223 208 206 244 237 243 265 273 278 287 296 281 269 274 268 264 269 291 281 256 258 276 278 269 289 274 271 311 330 337 340 341 347 355 356 357 359 349 340 309 312 335 359 345 347 348 353 346 351
175 184 205 206 234 232 238 243 246 257 263 267 263 271 286 294 302 288 267 251 248 255 263 267 264 262 267 273 281 278 271 268 275 309 345 355 357 357 1 6 3 360 357 353 340 327 329 341 346 353 353 357 353 358
186 197 204 215 230 237 249 248 252 259 263 252 255 246 257 264 273 267 273 287 264 250 249 257 275 276 261 256 250 241 234 240 277 309 310 319 329 343 358 3 7 17 24 31 34 23 14 21 21 22 19 12 11 8
191 196 210 249 246 236 210 227 246 264 247 252 250 238 242 258 261 245 264 266 239 239 257 275 282 269 251 217 217 227 240 274 283 290 303 330 296 281 305 325 324 350 6 11 7 2 0 1 351 355 352 351 352 354
Wind_Speed_850mb
15 18 21 25 28 31 33 34 33 31 34 36 37 36 30 25 43 43 54 53 56 66 44 40 39 39 21 20 10 8 8 7 5 5 4 6 6 9 8 12 8 11 9 8 8 6 8 47 20 14 21 44 48 56
14 16 20 23 26 28 30 35 34 29 31 33 34 31 28 23 22 24 31 26 29 48 41 38 44 40 28 18 12 18 14 8 10 2 7 5 10 7 3 5 16 6 9 6 9 6 15 31 27 23 20 33 36 40
13 15 19 22 23 25 29 32 32 31 31 31 34 30 29 23 18 50 56 42 39 50 42 29 29 33 38 32 16 9 18 11 14 13 14 4 14 3 4 11 7 9 24 7 7 13 23 24 31 27 25 30 37 40
10 14 18 21 22 23 24 29 30 28 28 30 27 28 22 24 28 33 26 25 20 19 18 23 21 34 33 30 34 37 35 29 25 22 17 8 7 7 7 6 7 15 10 12 3 12 19 25 31 29 26 28 32 33
9 13 17 20 21 21 21 25 25 22 24 28 28 27 19 15 15 15 13 6 10 10 19 20 21 27 28 32 28 27 22 25 21 15 15 11 9 4 11 6 13 15 3 4 7 13 6 18 26 28 29 30 31 32
9 12 16 20 19 19 20 22 20 16 19 22 28 36 29 17 18 16 11 17 28 26 7 7 11 21 18 22 25 24 20 21 16 12 12 12 10 4 6 8 18 15 11 7 4 12 11 16 18 19 22 24 29 30
8 12 16 16 17 19 21 22 16 12 13 16 20 22 40 35 15 11 10 11 7 10 5 11 11 11 13 11 14 17 21 17 17 10 11 8 8 7 4 5 19 15 11 8 11 11 16 21 21 22 20 19 26 26
9 12 15 16 17 20 23 23 16 12 11 12 18 20 24 28 31 26 24 12 9 9 8 5 8 6 16 7 5 8 11 17 16 9 7 6 5 6 4 21 14 10 7 9 8 11 14 18 20 23 20 18 23 27
9 13 13 13 16 19 21 22 14 10 11 10 14 13 14 13 11 11 20 27 28 12 7 10 6 6 10 7 3 3 4 7 6 9 10 7 6 6 12 31 9 5 1 2 4 8 15 16 18 22 21 21 22 24
10 11 11 13 15 16 18 19 14 15 10 7 8 6 6 9 8 8 13 6 10 13 12 15 5 5 7 7 2 4 5 4 4 10 4 4 2 25 30 17 12 3 2 2 5 13 14 18 19 19 18 17 19 20
9 10 10 11 13 14 16 16 10 7 6 6 5 6 6 12 10 6 6 10 11 7 10 9 13 6 9 5 4 3 4 3 4 6 4 8 12 42 34 31 16 8 4 3 4 8 12 11 10 13 12 12 15 16
9 10 10 11 12 12 15 16 12 12 9 8 8 9 11 9 8 6 7 6 11 6 8 12 11 6 4 3 5 4 2 2 7 3 6 6 17 38 44 48 13 4 8 5 3 8 10 7 2 5 5 7 10 12
9 10 10 10 11 11 15 16 12 8 6 9 7 6 8 8 14 8 7 6 5 7 12 13 8 4 3 3 4 2 4 8 5 6 3 4 29 33 33 34 23 23 17 14 8 7 11 9 8 7 6 6 7 8
8 9 9 10 10 13 15 17 15 10 9 6 6 9 6 7 8 7 7 4 5 5 9 11 7 3 4 1 5 3 6 2 5 4 1 10 24 29 31 28 18 16 12 13 5 9 7 7 5 5 4 2 2 2
7 8 8 9 9 12 14 16 15 14 8 7 7 5 7 8 6 3 2 5 3 7 7 5 6 5 4 3 4 2 5 6 3 4 3 12 14 20 27 30 26 22 18 16 10 7 1 4 4 3 4 6 9 10
7 9 7 9 8 11 10 14 13 13 7 7 7 10 9 6 6 1 2 3 3 6 6 5 5 2 4 2 3 5 5 3 6 5 8 9 11 18 25 27 27 21 21 19 14 15 10 14 14 9 16 20 22 22
8 7 8 8 5 10 11 10 8 7 6 5 7 6 3 1 2 3 6 5 8 6 3 5 3 7 1 2 5 3 4 9 10 7 7 8 11 18 22 23 24 21 18 18 16 18 16 20 21 21 28 26 19 21
8 7 8 7 5 9 17 12 6 6 7 7 4 8 6 7 7 5 3 3 3 2 3 3 1 2 4 5 3 5 8 5 2 3 6 8 9 15 20 21 20 20 18 18 19 19 18 20 22 22 27 26 19 14
8 7 6 3 2 5 4 8 7 5 7 6 4 3 4 4 5 3 3 4 5 5 1 2 2 4 3 7 12 13 9 5 5 5 6 6 8 13 20 21 18 18 18 21 21 19 18 16 17 21 24 27 18 13
9 8 6 5 6 4 4 6 7 4 3 5 2 2 2 3 2 3 1 1 1 1 2 2 6 13 14 13 9 9 8 7 5 4 5 6 8 11 18 22 20 20 19 21 22 22 16 14 15 20 22 23 22 21
8 8 8 8 11 8 6 4 5 4 2 1 2 2 1 2 1 2 4 3 2 4 6 11 16 13 9 8 7 6 4 4 6 4 5 6 9 10 14 21 22 21 21 23 24 23 19 16 16 18 19 20 24 23
6 5 6 7 6 5 5 6 3 1 2 2 4 4 5 5 2 3 2 4 3 10 11 13 9 6 5 6 5 8 5 5 6 6 8 6 8 8 13 17 22 24 23 23 25 23 23 18 16 16 17 21 23 20
6 6 5 6 4 4 3 4 1 3 4 5 6 6 2 2 1 2 5 1 3 8 9 6 6 7 8 6 6 4 1 2 4 5 8 8 9 10 12 17 21 24 25 23 24 23 22 23 17 17 18 21 23 21
5 3 3 3 4 3 1 2 1 2 2 4 6 5 7 9 8 5 2 1 2 7 7 8 6 7 7 8 9 6 6 9 15 12 8 11 12 10 14 17 21 23 23 21 23 23 20 20 19 19 21 23 22 22
2 3 2 3 1 2 2 1 1 3 3 6 6 3 6 7 5 3 5 7 5 7 7 6 5 7 1 6 7 6 7 13 15 15 9 11 13 14 16 20 24 24 19 19 21 23 20 17 17 18 20 20 17 15
2 2 1 2 3 1 2 2 3 5 6 4 3 7 6 5 3 5 8 8 7 3 5 11 5 3 2 3 15 14 14 14 13 9 7 11 11 17 23 28 26 21 20 17 17 21 18 16 16 18 18 18 22 18
3 5 4 5 3 4 0 1 3 4 2 3 4 6 5 4 5 5 7 4 3 3 3 4 7 2 3 8 12 16 17 8 3 5 6 11 15 18 19 20 19 18 16 11 11 14 16 18 17 18 19 18 19 18
4 6 8 11 6 3 2 2 3 2 1 1 4 3 6 2 2 5 6 5 4 3 2 4 8 11 11 10 8 7 9 5 6 11 15 13 16 18 21 17 15 18 10 7 6 9 13 16 18 19 18 17 15 16
7 9 10 11 7 6 5 4 4 3 3 4 5 4 4 7 10 9 9 8 6 7 11 14 11 10 9 6 5 7 2 3 9 13 16 17 17 18 18 16 14 11 9 9 12 6 14 18 19 19 18 17 17 17
9 13 8 8 7 6 5 8 5 5 7 10 11 13 15 15 16 17 15 15 14 13 10 8 8 8 11 10 8 7 6 6 8 10 13 14 14 16 15 13 13 12 9 7 6 12 18 18 21 20 20 17 17 16
8 12 6 8 6 6 8 9 11 13 14 15 15 18 20 16 14 12 14 17 19 16 16 14 14 14 15 14 13 12 11 9 7 8 8 10 12 13 12 12 12 12 10 7 5 7 10 13 15 16 17 18 19 20
10 9 7 7 5 6 6 8 9 11 11 11 12 12 10 9 9 6 7 5 6 10 13 15 17 19 17 16 13 11 12 7 6 11 13 12 13 15 12 10 11 12 10 8 7 7 9 11 12 15 17 20 22 23
6 6 6 6 5 5 7 6 6 7 10 9 9 10 11 10 8 7 10 9 7 6 6 8 10 12 11 10 11 10 10 12 17 21 23 33 27 17 9 7 7 6 7 6 6 6 7 9 11 15 17 18 20 22
Wind_Direction_850mb
33 28 27 28 28 28 29 29 30 29 27 26 34 44 57 65 80 76 90 83 103 97 75 66 61 51 52 41 26 79 205 91 130 100 79 86 87 80 95 51 354 26 328 14 325 337 13 352 353 34 309 317 329 358
37 27 28 28 28 30 30 29 29 31 28 28 37 51 63 90 76 82 85 82 90 96 99 72 60 48 42 25 17 61 77 84 21 112 79 151 128 98 19 77 3 68 41 316 340 31 318 343 332 306 315 325 5 13
37 28 29 26 29 32 32 29 30 33 34 42 46 58 66 85 97 102 95 97 81 92 78 62 33 32 44 37 75 21 74 62 82 61 82 57 86 338 52 50 340 67 22 8 332 11 344 340 349 350 14 25 19 17
33 33 29 25 31 35 33 30 31 39 47 43 44 52 79 103 129 140 72 76 85 84 80 58 49 46 37 54 66 74 90 87 83 77 77 70 88 8 57 64 30 22 2 347 102 17 322 15 2 11 24 18 15 18
34 35 27 25 32 33 33 31 33 46 50 44 45 43 51 130 91 174 218 4 54 78 99 95 64 43 50 53 60 65 70 76 72 74 84 74 82 217 139 144 38 31 355 350 50 317 282 309 8 15 18 16 18 19
38 32 25 28 34 33 31 26 32 58 56 53 50 45 50 119 125 90 87 70 108 96 98 98 76 40 43 52 57 60 61 60 68 73 70 86 56 340 28 77 24 83 91 104 329 354 354 2 8 6 15 16 21 25
39 33 28 33 38 35 27 23 39 77 64 60 55 60 56 66 99 98 109 113 95 93 94 131 105 34 37 43 52 54 56 60 53 71 45 45 47 23 38 50 7 50 57 46 31 21 9 8 11 9 15 20 20 25
44 36 34 43 43 35 33 37 53 87 77 78 55 60 66 69 64 65 72 82 90 67 62 58 100 115 28 31 75 36 70 69 42 52 69 58 30 42 67 349 358 49 87 83 49 24 12 12 20 22 24 27 24 24
45 39 43 54 48 42 42 35 46 96 98 80 56 58 53 39 54 58 65 61 65 73 73 64 17 48 357 33 25 74 46 72 65 47 44 28 2 40 301 309 339 23 117 68 39 34 13 21 23 24 25 31 33 33
46 45 59 63 52 51 42 39 61 78 94 69 41 28 50 7 39 57 19 44 38 42 56 57 46 25 1 26 122 118 64 114 57 38 87 81 36 358 3 347 318 14 166 213 16 17 26 20 18 17 23 34 39 40
51 58 74 65 57 58 39 35 47 58 68 50 44 56 31 35 40 36 50 34 16 73 41 35 32 12 20 22 0 65 157 166 96 54 4 27 8 1 356 348 255 240 227 269 306 333 347 343 351 10 27 45 45 51
57 73 82 66 59 61 37 39 51 61 74 83 109 73 37 23 23 44 38 44 36 58 37 11 358 359 360 5 286 98 67 107 68 65 54 14 351 357 5 13 154 206 323 294 329 347 3 3 44 42 56 79 72 71
62 87 82 65 69 54 34 35 38 51 75 63 53 56 29 33 41 46 26 36 36 19 14 357 357 343 343 335 268 319 57 67 129 49 66 273 4 2 17 33 64 36 44 36 44 36 44 65 95 98 116 128 112 93
79 91 88 75 82 46 40 33 33 50 62 57 44 30 36 39 54 48 55 80 51 354 342 327 325 12 5 326 337 57 76 98 66 74 29 1 9 6 11 15 10 13 60 21 325 2 20 60 83 79 87 139 177 171
84 102 91 100 78 46 38 32 38 61 54 60 45 59 69 92 123 160 295 310 295 317 337 303 289 279 39 96 39 117 102 74 53 141 63 15 354 0 2 3 1 1 2 5 31 24 168 307 298 307 328 270 256 250
96 116 91 124 80 38 33 30 42 61 57 56 62 112 121 160 97 133 325 323 339 316 318 273 284 295 69 2 82 66 89 98 144 84 30 5 0 4 4 5 4 0 8 13 22 17 358 351 350 334 320 298 269 240
115 108 110 123 60 27 25 40 41 53 61 66 93 83 44 56 326 7 337 317 313 290 336 290 293 36 283 176 93 61 106 101 104 82 30 7 3 359 360 3 5 9 1 356 359 354 359 355 348 349 347 343 330 254
110 97 123 124 96 46 41 41 60 67 77 94 94 81 34 17 359 16 10 346 288 322 300 37 22 19 23 117 149 178 119 119 115 72 41 18 5 2 1 359 1 359 353 352 349 345 346 350 346 347 346 343 349 4
101 86 117 109 29 35 39 31 50 78 75 92 85 51 17 20 16 43 105 59 56 64 78 23 59 111 108 114 130 111 106 93 91 102 50 44 26 7 4 2 1 358 2 358 353 345 339 341 351 352 350 359 0 348
97 88 107 87 46 60 67 37 51 68 94 81 126 105 44 28 2 46 125 247 314 23 81 28 106 131 122 118 122 113 93 80 79 115 81 46 10 358 357 7 2 359 354 353 352 351 349 345 346 349 355 354 343 346
105 85 77 95 67 71 80 51 64 59 75 339 104 230 208 244 178 141 92 132 116 72 104 124 127 129 134 125 119 114 100 86 43 19 351 344 337 343 355 1 4 358 356 352 355 356 351 343 341 344 346 352 353 355
115 86 83 65 58 58 68 37 61 15 309 347 286 284 242 228 179 138 215 230 91 122 127 143 148 157 172 137 129 111 79 57 28 8 350 320 330 336 343 353 359 357 352 349 347 345 346 336 331 345 339 345 351 353
100 86 54 48 68 62 94 28 1 9 303 355 321 289 308 312 1 261 249 173 145 165 169 180 215 229 230 226 201 192 359 344 309 351 349 324 311 318 330 338 342 345 343 340 344 341 342 345 331 333 333 334 340 341
78 79 57 52 49 91 104 113 18 321 307 348 332 344 12 348 329 286 357 148 179 197 202 228 264 248 219 194 216 225 265 281 305 291 285 326 322 321 323 332 338 339 334 336 339 338 337 339 348 336 329 329 329 333
56 45 65 85 79 182 149 121 260 273 350 3 318 345 5 321 301 350 35 39 348 267 251 268 244 207 157 40 356 325 312 305 302 305 315 319 319 318 322 329 331 330 329 334 337 341 337 334 335 341 345 351 0 358
100 124 52 91 114 274 46 288 339 348 322 311 357 330 315 307 312 56 17 358 358 303 249 188 132 74 43 270 325 341 325 311 326 317 319 338 332 327 325 325 326 327 321 327 332 343 345 340 332 333 333 340 344 351
166 160 162 160 116 120 187 274 309 272 273 315 3 325 302 310 27 45 354 342 14 36 119 175 135 351 187 302 331 336 340 300 218 308 348 349 337 336 334 327 322 314 321 329 335 344 347 344 338 334 329 326 326 338
210 186 190 172 169 182 298 291 265 255 165 196 280 281 317 15 269 329 337 320 278 281 312 272 259 290 288 279 313 343 356 357 351 339 342 335 343 342 346 340 326 329 345 311 331 349 348 357 358 352 349 347 344 345
198 188 176 189 184 206 229 242 250 222 206 258 287 293 270 282 289 290 297 303 298 275 270 288 267 272 289 280 319 349 323 290 317 325 337 339 341 336 340 349 345 334 318 317 310 313 332 346 353 356 354 350 348 346
190 181 197 191 200 223 208 206 244 237 243 265 273 278 287 296 281 269 274 268 264 269 291 281 256 258 276 278 269 289 274 271 311 330 337 340 341 347 355 356 357 359 349 340 309 312 335 359 345 347 348 353 346 351
175 184 205 206 234 232 238 243 246 257 263 267 263 271 286 294 302 288 267 251 248 255 263 267 264 262 267 273 281 278 271 268 275 309 345 355 357 357 1 6 3 360 357 353 340 327 329 341 346 353 353 357 353 358
186 197 204 215 230 237 249 248 252 259 263 252 255 246 257 264 273 267 273 287 264 250 249 257 275 276 261 256 250 241 234 240 277 309 310 319 329 343 358 3 7 17 24 31 34 23 14 21 21 22 19 12 11 8
191 196 210 249 246 236 210 227 246 264 247 252 250 238 242 258 261 245 264 266 239 239 257 275 282 269 251 217 217 227 240 274 283 290 303 330 296 281 305 325 324 350 6 11 7 2 0 1 351 355 352 351 352 354